Location: Ariel
(45.9570°N, 122.5700°W)
Time: 15:20:56
(UTC-07:00)

Transit 2A Rocket - Pass Details

Date: 25 July 2019
Orbit: 590 x 913 km, 66.7° (Epoch: 18 August)

Event Time Altitude Azimuth Distance (km) Brightness Sun altitude
Exits shadow 02:12:29 23° 130° (SE) 1,790 6.6 -23.2°
Maximum altitude 02:13:51 25° 109° (ESE) 1,689 6.7 -23.1°
Drops below altitude 10° 02:18:25 10° 56° (ENE) 2,461 8.3 -22.9°
Sets 02:21:11 0° 44° (NE) 3,348 9.3 -22.8°
